Location: Bismarck
(46.7731°N, 100.8200°W)
Time: 03:50:49
(UTC-05:00)

Amateur Radio Satellites - All Passes

Search period start: 25 September 2016 03:20
Search period end: 26 September 2016 03:20
Location: Bismarck, 46.7731°N, 100.8200°W

Satellite Date Start Highest point End Downlink Frequencies (MHz)
Time Altitude Azimuth
SWISSCUBE 25 Sep 03:21:57 03:26:42 78° 256° (WSW) 03:31:30 437.505
BUGSAT 1 25 Sep 03:26:23 03:29:00 17° 298° (WNW) 03:31:36 437.445
BEESAT 25 Sep 03:35:23 03:40:06 65° 258° (WSW) 03:44:52 436.000
RS-15 25 Sep 03:40:47 03:52:00 38° 19° (NNE) 04:03:15 29.354- 29.394
Oscar 19 25 Sep 03:47:53 03:53:00 62° 289° (WNW) 03:58:03 437.125/150
Cosmos 2491 25 Sep 03:49:28 03:58:20 77° 265° (W) 04:07:07 435.465 / 435.565
STARS 25 Sep 03:52:31 03:54:39 14° 58° (ENE) 03:56:48 437.465
MOZHAYETS 4 25 Sep 03:54:19 03:58:30 36° 68° (ENE) 04:02:43
ISS 25 Sep 03:57:08 04:00:27 78° 25° (NNE) 04:03:44 145.825
Cosmos 2504 25 Sep 04:03:56 04:08:47 19° 79° (E) 04:13:33 435.465 / 435.565
BEESAT 3 25 Sep 04:07:56 04:11:33 35° 315° (NW) 04:15:14 437.485
AO-7 25 Sep 04:11:38 04:17:56 23° 91° (E) 04:24:11 29.400- 29.500
Gurwin Techsat 1B 25 Sep 04:19:03 04:24:22 68° 288° (WNW) 04:29:37 435.225
JAS-2 25 Sep 04:19:25 04:23:53 17° 312° (NW) 04:28:21 435.910
ITAMSAT 1 25 Sep 04:33:37 04:38:44 51° 100° (E) 04:43:48 435.822/435.867
KKS-1 25 Sep 04:43:16 04:47:44 77° 73° (ENE) 04:52:12 437.445
ITUPSAT 1 25 Sep 04:47:15 04:50:02 15° 270° (W) 04:52:50 437.325
YUBILEINY 25 Sep 04:53:06 05:01:56 83° 279° (W) 05:10:45 435.215
AO-85 25 Sep 04:55:44 04:56:27 10° 18° (NNE) 04:57:11 145.980
BEESAT 2 25 Sep 04:57:04 05:00:24 25° 319° (NW) 05:03:47 435.950
CUBESAT XI-V 25 Sep 05:05:21 05:09:22 29° 66° (ENE) 05:13:25 437.345
AIST 2 25 Sep 05:13:17 05:16:47 27° 116° (ESE) 05:20:18 435.215
AIST 1 25 Sep 05:23:46 05:24:20 10° 81° (E) 05:24:54
STARS 25 Sep 05:26:02 05:30:26 79° 258° (WSW) 05:34:50 437.465
Oscar 19 25 Sep 05:30:16 05:31:18 11° 308° (NW) 05:32:20 437.125/150
MOZHAYETS 4 25 Sep 05:31:54 05:35:44 26° 266° (W) 05:39:38
ISS 25 Sep 05:34:11 05:36:38 19° 222° (SW) 05:39:04 145.825
CUSAT 1 25 Sep 05:44:59 05:50:51 22° 56° (NE) 05:56:18 437.405
Cosmos 2491 25 Sep 05:48:29 05:53:35 17° 287° (WNW) 05:58:42 435.465 / 435.565
HORYU 2 25 Sep 05:52:58 05:55:44 16° 91° (E) 05:58:30 437.375
Cosmos 2504 25 Sep 05:53:47 06:01:15 83° 279° (W) 06:08:29 435.465 / 435.565
RS-15 25 Sep 05:54:26 06:06:54 76° 49° (NE) 06:19:08 29.354- 29.394
Gurwin Techsat 1B 25 Sep 06:01:25 06:03:20 12° 307° (NW) 06:05:16 435.225
AO-7 25 Sep 06:03:20 06:11:40 85° 290° (WNW) 06:19:58 29.400- 29.500
ITAMSAT 1 25 Sep 06:13:41 06:17:54 25° 299° (WNW) 06:22:05 435.822/435.867
PCSat 25 Sep 06:16:34 06:21:52 59° 117° (ESE) 06:27:13 145.827
BRITE-PL 25 Sep 06:17:42 06:21:07 18° 88° (E) 06:24:21 437.365/2234.400
KKS-1 25 Sep 06:23:00 06:24:50 12° 271° (W) 06:26:40 437.445
STRAND 1 25 Sep 06:29:25 06:32:08 15° 56° (NE) 06:34:51 437.568
AO-85 25 Sep 06:34:22 06:38:18 33° 42° (NE) 06:41:58 145.980
CUBESAT XI-V 25 Sep 06:42:19 06:46:38 36° 263° (W) 06:51:01 437.345
DANDE 25 Sep 06:43:30 06:50:14 27° 61° (ENE) 06:57:00 436.750
LilacSat-2 25 Sep 06:49:10 06:50:09 11° 88° (E) 06:51:09 437.200
AIST 2 25 Sep 06:51:16 06:55:08 38° 315° (NW) 06:59:03 435.215
YUBILEINY 25 Sep 06:53:58 07:00:14 21° 303° (WNW) 07:06:32 435.215
AIST 1 25 Sep 06:56:48 07:01:12 84° 278° (W) 07:05:38
CUSAT 1 25 Sep 07:26:08 07:34:13 82° 79° (E) 07:41:15 437.405
HORYU 2 25 Sep 07:28:17 07:32:40 58° 288° (WNW) 07:37:02 437.375
NOAA 15 25 Sep 07:43:24 07:48:37 52° 100° (E) 07:53:46 137.62
Cubesat XI-IV 25 Sep 07:48:08 07:53:19 47° 100° (E) 07:58:28 437.490
CUTE-I 25 Sep 07:49:19 07:54:31 49° 99° (E) 07:59:42 437.470
Cosmos 2504 25 Sep 07:51:15 07:55:51 17° 302° (WNW) 08:00:23 435.465 / 435.565
BRITE-PL 25 Sep 07:55:09 08:00:06 57° 289° (WNW) 08:04:38 437.365/2234.400
AO-7 25 Sep 07:57:09 08:03:23 24° 313° (NW) 08:09:36 29.400- 29.500
GOMX 1 25 Sep 08:00:37 08:05:13 75° 102° (ESE) 08:09:30 467.674
PCSat 25 Sep 08:00:57 08:05:38 29° 318° (NW) 08:10:21 145.827
NOAA 18 25 Sep 08:03:48 08:09:09 51° 101° (E) 08:14:27 137.9125
STRAND 1 25 Sep 08:05:28 08:10:34 88° 72° (ENE) 08:15:43 437.568
RS-15 25 Sep 08:07:42 08:18:31 38° 254° (WSW) 08:29:10 29.354- 29.394
AO-85 25 Sep 08:14:58 08:18:40 31° 244° (WSW) 08:22:11 145.980
LilacSat-2 25 Sep 08:21:05 08:24:53 66° 286° (WNW) 08:28:41 437.200
DANDE 25 Sep 08:25:39 08:33:58 86° 260° (W) 08:42:09 436.750
O/OREOS (USA 219) 25 Sep 08:28:39 08:32:40 31° 105° (ESE) 08:36:43 437.305
HO-68 25 Sep 08:29:45 08:35:06 22° 90° (E) 08:40:25 435.675
AIST 2 25 Sep 08:34:00 08:34:46 10° 337° (NNW) 08:35:34 435.215
CINEMA 3 25 Sep 08:35:51 08:38:56 20° 92° (E) 08:42:02 145.822/145.860
DOVE 4 25 Sep 08:37:52 08:42:10 78° 103° (ESE) 08:46:19 437.250
BEESAT 3 25 Sep 09:08:43 09:09:43 11° 26° (NNE) 09:10:43 437.485
CUSAT 1 25 Sep 09:09:22 09:15:13 24° 280° (W) 09:20:37 437.405
Cosmos 2499 25 Sep 09:15:14 09:21:08 28° 84° (E) 09:26:56 435.465 / 435.565
GONETS M04 25 Sep 09:15:43 09:23:41 40° 85° (E) 09:31:41
NOAA 15 25 Sep 09:23:47 09:28:04 25° 299° (WNW) 09:32:20 137.62
Cubesat XI-IV 25 Sep 09:28:41 09:33:09 28° 298° (WNW) 09:37:38 437.490
PRISM 25 Sep 09:29:11 09:33:19 66° 73° (ENE) 09:37:30 437.425
COMPASS 1 25 Sep 09:29:42 09:33:19 27° 94° (E) 09:36:56 437.405
CUTE-I 25 Sep 09:29:53 09:34:19 27° 298° (WNW) 09:38:44 437.470
Oscar 11 25 Sep 09:35:06 09:35:31 10° 87° (E) 09:35:56 145.826/435.025
ANTELSAT 25 Sep 09:38:04 09:39:50 12° 59° (ENE) 09:41:38 437.575/2403.000
GOMX 1 25 Sep 09:40:17 09:42:38 14° 302° (WNW) 09:44:55 467.674
CUTE 1.7 + AOD 2 25 Sep 09:44:49 09:49:08 79° 101° (ESE) 09:53:26 437.475
NOAA 18 25 Sep 09:45:01 09:49:31 27° 299° (WNW) 09:54:02 137.9125
CANX-2 25 Sep 09:45:26 09:49:46 89° 288° (WNW) 09:54:05 2200.000
STRAND 1 25 Sep 09:48:12 09:50:27 13° 273° (W) 09:52:43 437.568
PCSat 25 Sep 09:49:57 09:50:57 10° 343° (NNW) 09:51:57 145.827
SEEDS 25 Sep 09:52:00 09:56:17 67° 101° (ESE) 10:00:31 437.485
BEESAT 2 25 Sep 09:57:04 09:59:14 14° 31° (NNE) 10:01:24 435.950
TIGRISAT 25 Sep 09:58:09 10:01:04 18° 62° (ENE) 10:03:59 435.000
CUBEBUG 2 25 Sep 10:03:19 10:07:25 47° 99° (E) 10:11:37 437.445
O/OREOS (USA 219) 25 Sep 10:07:54 10:12:02 33° 304° (NW) 10:16:13 437.305
DANDE 25 Sep 10:09:51 10:15:44 22° 280° (W) 10:21:34 436.750
CINEMA 3 25 Sep 10:12:23 10:16:16 40° 290° (WNW) 10:20:11 145.822/145.860
HO-68 25 Sep 10:16:24 10:23:35 79° 289° (WNW) 10:30:43 435.675
DOVE 4 25 Sep 10:17:29 10:19:14 12° 302° (WNW) 10:20:58 437.250
AAUSAT CUBESAT 2 25 Sep 10:23:30 10:27:44 80° 104° (ESE) 10:31:56 437.432
FUNcube-1 25 Sep 10:24:00 10:27:51 32° 96° (E) 10:31:46 145.935
UWE-3 25 Sep 10:27:49 10:32:02 57° 101° (E) 10:36:19 435.000/436.395/437.385
DELFI C3 25 Sep 10:35:16 10:38:01 18° 91° (E) 10:40:46 145.870
UNISAT 6 25 Sep 10:36:23 10:40:27 44° 70° (ENE) 10:44:30 437.425
BEESAT 3 25 Sep 10:44:32 10:48:23 44° 47° (NE) 10:52:12 437.485
QB50P1 25 Sep 10:54:11 10:55:29 11° 58° (ENE) 10:56:46 145.935-145.965
DUCHIFAT 1 25 Sep 10:56:19 10:56:45 10° 57° (ENE) 10:57:12 145.980
ZACube-1 25 Sep 11:04:02 11:08:20 88° 102° (ESE) 11:12:43 437.345
JAS-2 25 Sep 11:04:28 11:09:19 22° 52° (NE) 11:14:32 435.910
COMPASS 1 25 Sep 11:05:08 11:08:53 31° 292° (WNW) 11:12:36 437.405
POPSAT HIP 1 25 Sep 11:06:16 11:08:34 15° 60° (ENE) 11:10:53 437.405
Cosmos 2499 25 Sep 11:06:46 11:13:48 56° 285° (WNW) 11:20:45 435.465 / 435.565
PRISM 25 Sep 11:07:09 11:09:04 13° 271° (W) 11:11:00 437.425
Oscar 11 25 Sep 11:07:53 11:12:16 87° 285° (WNW) 11:16:38 145.826/435.025
ANTELSAT 25 Sep 11:11:41 11:15:58 81° 257° (WSW) 11:20:15 437.575/2403.000
GONETS M04 25 Sep 11:11:42 11:20:16 53° 287° (WNW) 11:28:56
CUTE 1.7 + AOD 2 25 Sep 11:22:26 11:24:22 13° 301° (WNW) 11:26:19 437.475
CANX-2 25 Sep 11:23:34 11:24:56 11° 302° (WNW) 11:26:18 2200.000
NANOSAT C BR1 25 Sep 11:23:46 11:26:51 20° 64° (ENE) 11:29:57 145.865
SEEDS 25 Sep 11:29:06 11:31:27 15° 299° (WNW) 11:33:50 437.485
TIGRISAT 25 Sep 11:33:16 11:37:25 50° 260° (W) 11:41:35 435.000
BEESAT 2 25 Sep 11:33:46 11:37:48 69° 52° (NE) 11:41:48 435.950
CUBEBUG 2 25 Sep 11:40:45 11:43:46 19° 296° (WNW) 11:46:50 437.445
QB50P2 25 Sep 11:43:26 11:47:15 35° 69° (ENE) 11:51:06 145.880/145.840
POLYITAN 1 25 Sep 11:45:42 11:49:31 35° 68° (ENE) 11:53:20 437.675
HUMSAT D 25 Sep 11:50:34 11:54:45 58° 101° (E) 11:58:58 437.325/437.525
AIST 2 25 Sep 11:54:13 11:55:52 12° 26° (NNE) 11:57:29 435.215
FUNcube-1 25 Sep 12:00:23 12:04:01 28° 293° (WNW) 12:07:43 145.935
AAUSAT CUBESAT 2 25 Sep 12:00:52 12:02:36 12° 301° (WNW) 12:04:20 437.432
UWE-3 25 Sep 12:05:24 12:08:06 17° 298° (WNW) 12:10:50 435.000/436.395/437.385
HO-68 25 Sep 12:05:29 12:10:15 20° 310° (NW) 12:15:01 435.675
DELFI C3 25 Sep 12:09:14 12:13:05 43° 289° (WNW) 12:16:54 145.870
UNISAT 6 25 Sep 12:14:18 12:17:23 19° 268° (W) 12:20:29 437.425
BEESAT 3 25 Sep 12:22:43 12:25:47 22° 246° (WSW) 12:28:51 437.485
QB50P1 25 Sep 12:26:23 12:30:36 89° 255° (WSW) 12:34:50 145.935-145.965
DUCHIFAT 1 25 Sep 12:27:33 12:31:44 83° 74° (ENE) 12:35:56 145.980
POPSAT HIP 1 25 Sep 12:39:41 12:43:52 66° 259° (WSW) 12:48:04 437.405
BUGSAT 1 25 Sep 12:42:11 12:46:11 50° 72° (ENE) 12:50:09 437.445
ZACube-1 25 Sep 12:42:31 12:44:00 12° 301° (WNW) 12:45:30 437.345
Oscar 11 25 Sep 12:46:18 12:47:42 11° 302° (WNW) 12:49:07 145.826/435.025
JAS-2 25 Sep 12:46:52 12:53:17 89° 74° (ENE) 13:00:37 435.910
AISAT 25 Sep 12:48:05 12:51:25 21° 93° (E) 12:54:43 437.250
50 SAT 25 Sep 12:56:24 12:59:14 21° 94° (E) 13:02:03 437.505
NANOSAT C BR1 25 Sep 12:58:19 13:02:19 43° 261° (W) 13:06:20 145.865
SPROUT 25 Sep 13:02:44 13:05:22 16° 91° (E) 13:07:58 437.525
YUBILEINY 25 Sep 13:05:03 13:09:18 14° 50° (NE) 13:13:33 435.215
Cosmos 2499 25 Sep 13:07:03 13:08:47 11° 309° (NW) 13:10:31 435.465 / 435.565
UKube-1 25 Sep 13:10:55 13:13:43 17° 91° (E) 13:16:29 .
BEESAT 2 25 Sep 13:13:00 13:15:06 14° 249° (WSW) 13:17:13 435.950
GONETS M04 25 Sep 13:16:01 13:19:40 13° 313° (NW) 13:23:21
PCSat 25 Sep 13:18:45 13:22:51 21° 36° (NE) 13:26:54 145.827
ESTCUBE 1 25 Sep 13:19:34 13:24:09 80° 105° (ESE) 13:28:40 437.505/2401.250
QB50P2 25 Sep 13:19:42 13:23:08 24° 266° (W) 13:26:35 145.880/145.840
POLYITAN 1 25 Sep 13:21:59 13:25:24 24° 266° (W) 13:28:49 437.675
AO-7 25 Sep 13:27:04 13:30:27 13° 35° (NE) 13:33:50 29.400- 29.500
HUMSAT D 25 Sep 13:27:19 13:29:58 16° 298° (WNW) 13:32:38 437.325/437.525
Oscar 19 25 Sep 13:28:46 13:33:31 38° 66° (ENE) 13:38:18 437.125/150
AIST 2 25 Sep 13:31:16 13:35:21 47° 48° (NE) 13:39:25 435.215
VELOX 1 25 Sep 13:31:18 13:35:38 53° 101° (E) 13:39:55 145.980
DX 1 25 Sep 13:33:05 13:37:06 35° 97° (E) 13:41:05 434.975-435.025
M-CUBED/EXP-1 PRIME 25 Sep 13:35:11 13:38:02 26° 102° (ESE) 13:40:50 437.505
CUBEBUG 1 25 Sep 13:43:04 13:47:27 89° 293° (WNW) 13:51:47 437.445
Gurwin Techsat 1B 25 Sep 14:03:44 14:08:37 38° 66° (ENE) 14:13:31 435.225
PHONESAT 2.4 25 Sep 14:14:49 14:17:05 20° 169° (S) 14:19:21 2401.200-2431.200
ITAMSAT 1 25 Sep 14:17:33 14:20:49 17° 57° (ENE) 14:24:05 435.822/435.867
BUGSAT 1 25 Sep 14:19:17 14:21:50 16° 269° (W) 14:24:24 437.445
AISAT 25 Sep 14:23:54 14:28:05 44° 290° (WNW) 14:32:14 437.250
50 SAT 25 Sep 14:29:31 14:32:48 31° 291° (WNW) 14:36:03 437.505
TISAT 1 25 Sep 14:32:38 14:36:15 28° 96° (E) 14:39:51 437.305
AUBIESAT-1 25 Sep 14:34:24 14:37:43 64° 291° (WNW) 14:40:59 437.475
JAS-2 25 Sep 14:35:11 14:39:28 18° 277° (W) 14:44:04 435.910
SPROUT 25 Sep 14:37:28 14:41:38 54° 288° (WNW) 14:45:47 437.525
UKube-1 25 Sep 14:45:52 14:50:05 53° 289° (WNW) 14:54:16 .
ESTCUBE 1 25 Sep 14:57:59 15:00:19 14° 302° (WNW) 15:02:41 437.505/2401.250
Cosmos 2491 25 Sep 14:59:23 15:06:20 27° 80° (E) 15:13:19 435.465 / 435.565
YUBILEINY 25 Sep 14:59:48 15:08:25 58° 75° (ENE) 15:16:57 435.215
PCSat 25 Sep 15:01:33 15:07:02 87° 60° (ENE) 15:12:27 145.827
ITUPSAT 1 25 Sep 15:06:01 15:08:35 14° 89° (E) 15:11:08 437.325
Oscar 19 25 Sep 15:08:15 15:12:53 32° 264° (W) 15:17:33 437.125/150
VELOX 1 25 Sep 15:08:38 15:11:43 19° 299° (WNW) 15:14:48 145.980
DX 1 25 Sep 15:09:33 15:13:09 26° 295° (WNW) 15:16:44 434.975-435.025
M-CUBED/EXP-1 PRIME 25 Sep 15:09:59 15:12:29 20° 300° (WNW) 15:14:57 437.505
AIST 2 25 Sep 15:10:18 15:13:34 22° 246° (WSW) 15:16:50 435.215
AO-7 25 Sep 15:13:25 15:21:07 44° 58° (ENE) 15:28:48 29.400- 29.500
SWISSCUBE 25 Sep 15:19:48 15:23:30 22° 93° (E) 15:27:11 437.505
CUBEBUG 1 25 Sep 15:21:32 15:23:02 12° 303° (WNW) 15:24:32 437.445
BEESAT 25 Sep 15:32:54 15:36:54 26° 94° (E) 15:40:53 436.000
Cosmos 2504 25 Sep 15:41:55 15:48:48 41° 72° (ENE) 15:56:02 435.465 / 435.565
Gurwin Techsat 1B 25 Sep 15:43:52 15:48:37 33° 264° (W) 15:53:23 435.225
PHONESAT 2.4 25 Sep 15:50:18 15:52:44 23° 185° (S) 15:55:11 2401.200-2431.200
ITAMSAT 1 25 Sep 15:54:29 15:59:39 80° 254° (WSW) 16:04:53 435.822/435.867
TISAT 1 25 Sep 16:08:15 16:11:53 29° 293° (WNW) 16:15:29 437.305
KKS-1 25 Sep 16:33:28 16:35:00 12° 88° (E) 16:36:33 437.445
ITUPSAT 1 25 Sep 16:42:09 16:46:58 75° 287° (WNW) 16:51:45 437.325
PCSat 25 Sep 16:46:36 16:49:40 15° 256° (WSW) 16:52:45 145.827
SO-50 25 Sep 16:50:00 16:54:33 42° 119° (ESE) 16:59:04 436.795
Cosmos 2491 25 Sep 16:53:32 17:02:19 74° 282° (WNW) 17:11:13 435.465 / 435.565
HORYU 2 25 Sep 16:53:34 16:56:57 22° 63° (ENE) 17:00:22 437.375
SWISSCUBE 25 Sep 16:56:55 17:01:33 49° 290° (WNW) 17:06:10 437.505
O/OREOS (USA 219) 25 Sep 16:56:56 16:59:47 16° 46° (NE) 17:02:39 437.305
YUBILEINY 25 Sep 16:57:13 17:04:47 35° 277° (W) 17:12:20 435.215
AIST 1 25 Sep 17:01:06 17:04:59 31° 73° (ENE) 17:08:47
AO-7 25 Sep 17:05:45 17:13:47 51° 259° (WSW) 17:21:51 29.400- 29.500
BEESAT 25 Sep 17:10:19 17:14:49 41° 292° (WNW) 17:19:17 436.000
STARS 25 Sep 17:13:46 17:16:17 15° 90° (E) 17:18:47 437.465
MOZHAYETS 4 25 Sep 17:22:52 17:27:29 58° 101° (E) 17:32:03
PHONESAT 2.4 25 Sep 17:27:03 17:28:17 12° 202° (SSW) 17:29:32 2401.200-2431.200
NOAA 15 25 Sep 17:28:52 17:32:27 19° 57° (ENE) 17:36:01 137.62
BRITE-PL 25 Sep 17:29:42 17:34:43 33° 66° (ENE) 17:39:41 437.365/2234.400
GOMX 1 25 Sep 17:34:40 17:38:10 18° 60° (ENE) 17:41:34 467.674
Cosmos 2504 25 Sep 17:35:23 17:42:11 43° 271° (W) 17:49:22 435.465 / 435.565
Cubesat XI-IV 25 Sep 17:35:37 17:38:58 17° 57° (ENE) 17:42:21 437.490
CUTE-I 25 Sep 17:36:34 17:39:59 18° 57° (ENE) 17:43:26 437.470
ITAMSAT 1 25 Sep 17:38:39 17:39:58 11° 274° (W) 17:41:17 435.822/435.867
NOAA 18 25 Sep 17:54:25 17:58:29 22° 58° (ENE) 18:02:33 137.9125
KKS-1 25 Sep 18:07:42 18:12:09 80° 286° (WNW) 18:16:34 437.445
DOVE 4 25 Sep 18:10:07 18:13:04 16° 61° (ENE) 18:15:56 437.250
ITUPSAT 1 25 Sep 18:22:22 18:23:58 12° 305° (NW) 18:25:34 437.325
HORYU 2 25 Sep 18:29:03 18:33:16 43° 261° (W) 18:37:30 437.375
SO-50 25 Sep 18:30:43 18:35:08 34° 318° (NW) 18:39:30 436.795
O/OREOS (USA 219) 25 Sep 18:35:13 18:39:50 83° 247° (WSW) 18:44:26 437.305
CUBESAT XI-V 25 Sep 18:35:28 18:40:01 45° 98° (E) 18:44:29 437.345
AIST 1 25 Sep 18:38:54 18:42:27 25° 271° (W) 18:45:57
STARS 25 Sep 18:48:44 18:53:03 61° 288° (WNW) 18:57:20 437.465
CUSAT 1 25 Sep 18:52:25 18:55:20 13° 73° (ENE) 18:58:27 437.405
Cosmos 2491 25 Sep 18:55:12 19:00:58 19° 306° (NW) 19:06:48 435.465 / 435.565
MOZHAYETS 4 25 Sep 19:01:00 19:04:13 19° 299° (WNW) 19:07:27
HO-68 25 Sep 19:02:02 19:07:35 25° 54° (NE) 19:13:08 435.675
Cosmos 2499 25 Sep 19:02:10 19:05:16 13° 54° (NE) 19:08:25 435.465 / 435.565
LilacSat-2 25 Sep 19:05:26 19:09:12 89° 78° (ENE) 19:13:00 437.200
NOAA 15 25 Sep 19:06:19 19:11:37 76° 256° (WSW) 19:16:59 137.62
BRITE-PL 25 Sep 19:07:37 19:13:02 43° 263° (W) 19:18:24 437.365/2234.400
CANX-2 25 Sep 19:08:16 19:09:39 11° 58° (ENE) 19:11:02 2200.000
GOMX 1 25 Sep 19:10:15 19:15:42 78° 257° (WSW) 19:20:55 467.674
Cubesat XI-IV 25 Sep 19:13:04 19:18:24 82° 256° (WSW) 19:23:45 437.490
CUTE-I 25 Sep 19:14:05 19:19:25 80° 257° (WSW) 19:24:46 437.470
GONETS M04 25 Sep 19:21:59 19:28:48 24° 59° (ENE) 19:35:32
NOAA 18 25 Sep 19:33:14 19:38:40 66° 257° (WSW) 19:44:08 137.9125
CINEMA 3 25 Sep 19:39:59 19:43:47 28° 67° (ENE) 19:47:28 145.822/145.860
DOVE 4 25 Sep 19:45:11 19:50:15 78° 257° (WSW) 19:55:04 437.250
KKS-1 25 Sep 19:46:52 19:47:57 11° 304° (NW) 19:49:02 437.445
DANDE 25 Sep 19:57:47 20:00:35 14° 75° (ENE) 20:03:44 436.750
CUBESAT XI-V 25 Sep 20:13:24 20:17:07 24° 296° (WNW) 20:20:49 437.345
STRAND 1 25 Sep 20:13:33 20:17:43 24° 93° (E) 20:21:52 437.568
SO-50 25 Sep 20:15:15 20:17:00 12° 341° (NNW) 20:18:45 436.795
RS-15 25 Sep 20:22:33 20:32:24 34° 104° (ESE) 20:42:38 29.354- 29.394
COMPASS 1 25 Sep 20:23:09 20:26:40 27° 67° (ENE) 20:30:13 437.405
CUSAT 1 25 Sep 20:29:32 20:35:37 69° 96° (E) 20:43:09 437.405
ZACube-1 25 Sep 20:29:39 20:30:59 11° 59° (ENE) 20:32:19 437.345
Oscar 11 25 Sep 20:31:58 20:33:51 13° 59° (ENE) 20:35:46 145.826/435.025
CUTE 1.7 + AOD 2 25 Sep 20:39:52 20:44:05 79° 75° (ENE) 20:48:22 437.475
CANX-2 25 Sep 20:40:35 20:44:50 89° 267° (W) 20:49:07 2200.000
SEEDS 25 Sep 20:46:06 20:50:16 65° 74° (ENE) 20:54:28 437.485
HO-68 25 Sep 20:47:24 20:54:36 81° 254° (WSW) 21:01:49 435.675
NOAA 15 25 Sep 20:51:07 20:52:17 11° 274° (W) 20:53:28 137.62
Cosmos 2499 25 Sep 20:52:45 21:00:05 60° 76° (ENE) 21:07:57 435.465 / 435.565
GOMX 1 25 Sep 20:52:47 20:54:29 11° 274° (W) 20:56:10 467.674
Cubesat XI-IV 25 Sep 20:57:28 20:59:18 12° 274° (W) 21:01:09 437.490
CUTE-I 25 Sep 20:58:44 21:00:19 11° 274° (W) 21:01:54 437.470
CUBEBUG 2 25 Sep 21:04:08 21:08:15 54° 72° (ENE) 21:12:19 437.445
AAUSAT CUBESAT 2 25 Sep 21:16:02 21:20:11 75° 75° (ENE) 21:24:23 437.432
CINEMA 3 25 Sep 21:16:47 21:20:51 33° 264° (W) 21:24:48 145.822/145.860
GONETS M04 25 Sep 21:18:02 21:26:55 88° 263° (W) 21:35:42
FUNcube-1 25 Sep 21:22:21 21:26:05 34° 69° (ENE) 21:29:50 145.935
DELFI C3 25 Sep 21:24:13 21:26:44 16° 63° (ENE) 21:29:16 145.870
UWE-3 25 Sep 21:27:31 21:31:38 64° 74° (ENE) 21:35:45 435.000/436.395/437.385
DANDE 25 Sep 21:36:49 21:41:51 89° 110° (ESE) 21:48:41 436.750
STRAND 1 25 Sep 21:52:11 21:57:09 49° 291° (WNW) 22:02:05 437.568
COMPASS 1 25 Sep 21:58:25 22:02:08 31° 264° (W) 22:05:54 437.405
ZACube-1 25 Sep 22:02:30 22:06:39 84° 257° (WSW) 22:10:49 437.345
Oscar 11 25 Sep 22:05:04 22:09:22 81° 258° (WSW) 22:13:43 145.826/435.025
CUSAT 1 25 Sep 22:12:59 22:18:27 28° 300° (WNW) 22:24:48 437.405
ISS 25 Sep 22:15:26 22:18:14 27° 141° (SE) 22:21:04 145.825
CUTE 1.7 + AOD 2 25 Sep 22:19:25 22:20:30 11° 273° (W) 22:21:36 437.475
SEEDS 25 Sep 22:24:25 22:26:25 13° 272° (W) 22:28:25 437.485
AO-85 25 Sep 22:30:28 22:35:19 41° 119° (ESE) 22:39:53 145.980
RS-15 25 Sep 22:31:56 22:43:41 81° 309° (NW) 22:56:04 29.354- 29.394
HO-68 25 Sep 22:39:16 22:43:24 16° 273° (W) 22:47:34 435.675
CUBEBUG 2 25 Sep 22:42:46 22:45:13 15° 270° (W) 22:47:40 437.445
PRISM 25 Sep 22:42:58 22:47:07 72° 101° (E) 22:51:14 437.425
HUMSAT D 25 Sep 22:44:22 22:48:22 56° 72° (ENE) 22:52:25 437.325/437.525
Cosmos 2499 25 Sep 22:46:33 22:52:46 30° 276° (W) 22:59:23 435.465 / 435.565
ESTCUBE 1 25 Sep 22:47:34 22:49:53 14° 58° (ENE) 22:52:13 437.505/2401.250
AAUSAT CUBESAT 2 25 Sep 22:54:57 22:56:12 11° 273° (W) 22:57:27 437.432
DELFI C3 25 Sep 22:57:17 23:01:11 51° 260° (W) 23:05:08 145.870
FUNcube-1 25 Sep 22:59:06 23:02:25 23° 266° (W) 23:05:46 145.935
ANTELSAT 25 Sep 23:01:06 23:03:59 17° 91° (E) 23:06:54 437.575/2403.000
UWE-3 25 Sep 23:06:42 23:08:33 13° 271° (W) 23:10:24 435.000/436.395/437.385
CUBEBUG 1 25 Sep 23:07:48 23:10:05 14° 59° (ENE) 23:12:21 437.445
GONETS M04 25 Sep 23:16:30 23:22:27 21° 284° (WNW) 23:28:24
TIGRISAT 25 Sep 23:21:45 23:25:24 25° 95° (E) 23:29:06 435.000
DANDE 25 Sep 23:22:15 23:26:02 18° 307° (NW) 23:30:28 436.750
50 SAT 25 Sep 23:36:32 23:38:43 15° 63° (ENE) 23:40:55 437.505
SO-50 25 Sep 23:38:49 23:42:07 19° 31° (NNE) 23:45:21 436.795
AISAT 25 Sep 23:47:56 23:51:41 27° 65° (ENE) 23:55:27 437.250
AUBIESAT-1 25 Sep 23:48:54 23:52:12 25° 62° (ENE) 23:55:20 437.475
ISS 25 Sep 23:51:19 23:54:34 61° 340° (NNW) 23:57:49 145.825
JAS-2 25 Sep 23:54:57 23:59:09 15° 82° (E) 00:03:18 435.910
SPROUT 25 Sep 23:59:03 00:02:00 19° 62° (ENE) 00:04:58 437.525
UNISAT 6 26 Sep 00:01:07 00:05:29 68° 102° (ESE) 00:09:56 437.425
UKube-1 26 Sep 00:08:00 00:11:18 22° 63° (ENE) 00:14:36 .
QB50P1 26 Sep 00:10:06 00:11:44 12° 88° (E) 00:13:24 145.935-145.965
AO-85 26 Sep 00:11:08 00:15:50 37° 316° (NW) 00:20:16 145.980
DUCHIFAT 1 26 Sep 00:11:22 00:12:12 10° 88° (E) 00:13:00 145.980
PRISM 26 Sep 00:19:51 00:21:53 13° 301° (WNW) 00:23:54 437.425
ESTCUBE 1 26 Sep 00:21:32 00:26:04 81° 256° (WSW) 00:30:40 437.505/2401.250
HUMSAT D 26 Sep 00:22:09 00:24:22 14° 270° (W) 00:26:36 437.325/437.525
POPSAT HIP 1 26 Sep 00:22:33 00:25:12 16° 91° (E) 00:27:50 437.405
M-CUBED/EXP-1 PRIME 26 Sep 00:23:15 00:27:25 70° 68° (ENE) 00:31:15 437.505
VELOX 1 26 Sep 00:30:58 00:35:23 67° 73° (ENE) 00:39:50 145.980
DX 1 26 Sep 00:31:02 00:35:12 44° 70° (ENE) 00:39:23 434.975-435.025
ANTELSAT 26 Sep 00:36:45 00:41:01 54° 288° (WNW) 00:45:21 437.575/2403.000
NANOSAT C BR1 26 Sep 00:39:58 00:43:22 23° 94° (E) 00:46:44 145.865
CUBEBUG 1 26 Sep 00:41:21 00:45:46 77° 256° (WSW) 00:50:13 437.445
RS-15 26 Sep 00:47:20 00:58:20 39° 339° (NNW) 01:09:41 29.354- 29.394
TIGRISAT 26 Sep 00:58:12 01:02:10 35° 291° (WNW) 01:06:12 435.000
QB50P2 26 Sep 01:00:42 01:04:44 42° 98° (E) 01:08:45 145.880/145.840
POLYITAN 1 26 Sep 01:02:56 01:06:58 43° 99° (E) 01:11:00 437.675
Cosmos 2491 26 Sep 01:05:00 01:10:18 17° 52° (NE) 01:15:34 435.465 / 435.565
50 SAT 26 Sep 01:08:23 01:11:53 45° 261° (W) 01:15:25 437.505
SO-50 26 Sep 01:18:41 01:23:20 83° 54° (NE) 01:27:49 436.795
AUBIESAT-1 26 Sep 01:22:52 01:26:34 32° 257° (WSW) 01:30:04 437.475
AISAT 26 Sep 01:23:58 01:28:03 35° 263° (W) 01:32:09 437.250
TISAT 1 26 Sep 01:26:52 01:30:34 31° 67° (ENE) 01:34:16 437.305
ISS 26 Sep 01:28:24 01:31:26 33° 359° (N) 01:34:28 145.825
SPROUT 26 Sep 01:33:27 01:37:36 50° 260° (W) 01:41:46 437.525
JAS-2 26 Sep 01:37:38 01:45:32 70° 102° (ESE) 01:53:10 435.910
UNISAT 6 26 Sep 01:39:12 01:41:44 15° 299° (WNW) 01:44:16 437.425
UKube-1 26 Sep 01:42:57 01:47:05 43° 261° (W) 01:51:15 .
QB50P1 26 Sep 01:43:49 01:48:01 71° 285° (WNW) 01:52:12 145.935-145.965
DUCHIFAT 1 26 Sep 01:44:14 01:48:27 80° 283° (WNW) 01:52:37 145.980
AO-85 26 Sep 01:55:49 01:57:35 12° 338° (NNW) 01:59:18 145.980
BUGSAT 1 26 Sep 01:56:10 02:00:08 58° 101° (E) 02:04:06 437.445
POPSAT HIP 1 26 Sep 01:57:12 02:01:18 52° 288° (WNW) 02:05:23 437.405
M-CUBED/EXP-1 PRIME 26 Sep 02:00:34 02:02:14 12° 263° (W) 02:03:52 437.505
DX 1 26 Sep 02:08:20 02:11:36 20° 267° (W) 02:14:53 434.975-435.025
VELOX 1 26 Sep 02:09:57 02:12:19 14° 271° (W) 02:14:40 145.980
YUBILEINY 26 Sep 02:14:40 02:17:39 12° 70° (ENE) 02:20:39 435.215
ITUPSAT 1 26 Sep 02:15:03 02:18:50 24° 62° (ENE) 02:22:38 437.325
BEESAT 3 26 Sep 02:15:06 02:18:28 28° 116° (ESE) 02:21:52 437.485
NANOSAT C BR1 26 Sep 02:15:20 02:19:11 35° 291° (WNW) 02:23:01 145.865
Gurwin Techsat 1B 26 Sep 02:19:09 02:20:47 11° 86° (E) 02:22:24 435.225
SWISSCUBE 26 Sep 02:28:46 02:33:03 34° 66° (ENE) 02:37:22 437.505
QB50P2 26 Sep 02:37:08 02:40:17 21° 296° (WNW) 02:43:26 145.880/145.840
POLYITAN 1 26 Sep 02:39:22 02:42:30 21° 296° (WNW) 02:45:39 437.675
BEESAT 26 Sep 02:41:49 02:46:16 41° 68° (ENE) 02:50:44 436.000
MOZHAYETS 4 26 Sep 02:54:24 02:55:29 11° 56° (NE) 02:56:34
Cosmos 2491 26 Sep 03:00:20 03:09:11 67° 77° (ENE) 03:17:57 435.465 / 435.565
SO-50 26 Sep 03:00:51 03:03:07 14° 251° (WSW) 03:05:21 436.795
TISAT 1 26 Sep 03:02:39 03:06:13 27° 265° (W) 03:09:47 437.305
ISS 26 Sep 03:05:06 03:08:21 54° 20° (NNE) 03:11:34 145.825
BEESAT 2 26 Sep 03:05:26 03:09:14 47° 121° (ESE) 03:13:05 435.950
